GW2364 Weather Reports


Display with metric or nautical units.
time (UTC)temp
F
wind
direction
speed
MPH
gust
MPH
rain 1hr
in
rain 24hr
in
rain mn
in
humidity
%
barometer
mb
20260901224504 96 61 2.0 7.0 0.00 0.00 0.00 43 1010.2
20260901223004 97 47 3.0 9.0 0.00 0.00 0.00 41 1010.3
20260901221504 100 59 4.0 9.0 0.00 0.00 0.00 40 1010.3
20260901220011 99 64 1.0 7.0 0.00 0.00 0.00 40 1010.4
20260901214505 100 111 2.0 8.0 0.00 0.00 0.00 39 1010.4
20260901213003 100 150 2.0 8.0 0.00 0.00 0.00 39 1010.3
20260901211504 100 132 2.0 7.0 0.00 0.00 0.00 41 1010.6
20260901210008 100 92 2.0 9.0 0.00 0.00 0.00 40 1010.9
20260901204503 99 117 2.0 7.0 0.00 0.00 0.00 41 1011.0
20260901203004 98 44 2.0 10.0 0.00 0.00 0.00 43 1011.4
20260901201504 99 270 1.0 7.0 0.00 0.00 0.00 42 1011.5
20260901200007 98 68 3.0 8.0 0.00 0.00 0.00 44 1011.7
20260901194502 96 98 1.0 11.0 0.00 0.00 0.00 46 1012.0
20260901193007 97 47 1.0 9.0 0.00 0.00 0.00 45 1012.1
20260901191504 98 126 5.0 10.0 0.00 0.00 0.00 43 1012.3
20260901190009 98 195 1.0 7.0 0.00 0.00 0.00 46 1012.6
20260901184504 96 47 2.0 6.0 0.00 0.00 0.00 47 1012.7
20260901183003 97 59 2.0 7.0 0.00 0.00 0.00 46 1013.0
20260901181503 96 45 3.0 8.0 0.00 0.00 0.00 47 1013.3
20260901180006 96 111 2.0 9.0 0.00 0.00 0.00 47 1013.5
20260901174504 95 100 4.0 9.0 0.00 0.00 0.00 49 1013.7
20260901173003 93 127 2.0 5.0 0.00 0.00 0.00 52 1014.0
20260901171503 93 55 4.0 7.0 0.00 0.00 0.00 53 1014.2
20260901170004 92 116 2.0 9.0 0.00 0.00 0.00 54 1014.3
20260901164503 92 42 5.0 11.0 0.00 0.00 0.00 55 1014.4
20260901163003 91 31 2.0 6.0 0.00 0.00 0.00 59 1014.4
20260901161504 90 216 1.0 7.0 0.00 0.00 0.00 59 1014.7
20260901160010 89 269 1.0 4.0 0.00 0.00 0.00 64 1014.7
20260901154505 87 230 1.0 8.0 0.00 0.00 0.00 65 1014.7
20260901153004 86 84 0.0 7.0 0.00 0.00 0.00 68 1014.7
20260901151503 85 235 1.0 5.0 0.00 0.00 0.00 70 1014.6
20260901150007 85 247 1.0 4.0 0.00 0.00 0.00 73 1014.6
20260901144502 83 216 2.0 6.0 0.00 0.00 0.00 76 1014.7
20260901143004 83 240 0.0 3.0 0.00 0.00 0.00 78 1014.9
20260901141506 82 240 0.0 6.0 0.00 0.00 0.00 81 1014.8
20260901140004 81 225 0.0 4.0 0.00 0.00 0.00 83 1015.0
20260901134502 79 237 0.0 3.0 0.00 0.00 0.00 86 1014.7
20260901133004 78 237 0.0 2.0 0.00 0.00 0.00 86 1014.6
20260901131502 78 237 0.0 1.0 0.00 0.00 0.00 88 1014.5
20260901130006 76 237 0.0 1.0 0.00 0.00 0.00 90 1014.5
20260901124503 76 237 0.0 1.0 0.00 0.00 0.00 91 1014.3
20260901123005 75 237 0.0 0.0 0.00 0.00 0.00 90 1014.1
20260901121503 75 236 0.0 2.0 0.00 0.00 0.00 90 1013.9
20260901120006 75 236 0.0 1.0 0.00 0.00 0.00 90 1013.9
20260901114503 75 237 0.0 0.0 0.00 0.00 0.00 90 1013.9
20260901113003 76 236 0.0 2.0 0.00 0.00 0.00 90 1013.8
20260901111503 76 236 0.0 3.0 0.00 0.00 0.00 89 1013.7
20260901110005 76 236 1.0 3.0 0.00 0.00 0.00 89 1013.7
20260901104502 76 236 0.0 3.0 0.00 0.00 0.00 88 1013.6
20260901103002 77 228 1.0 4.0 0.00 0.00 0.00 87 1013.6
20260901101503 77 231 0.0 3.0 0.00 0.00 0.00 86 1013.5
20260901100004 77 230 1.0 4.0 0.00 0.00 0.00 86 1013.6
20260901094502 77 233 1.0 3.0 0.00 0.00 0.00 86 1013.7
20260901093002 77 240 0.0 1.0 0.00 0.00 0.00 85 1014.0
20260901091503 78 240 0.0 2.0 0.00 0.00 0.00 85 1013.9
20260901090007 78 240 0.0 2.0 0.00 0.00 0.00 84 1013.8
20260901084504 78 240 0.0 3.0 0.00 0.00 0.00 83 1013.7
20260901083002 79 76 0.0 1.0 0.00 0.00 0.00 82 1013.6
20260901081503 79 76 0.0 2.0 0.00 0.00 0.00 81 1013.7
20260901080004 79 76 0.0 1.0 0.00 0.00 0.00 80 1013.8
20260901074501 79 76 0.0 1.0 0.00 0.00 0.00 79 1013.7
20260901073001 80 76 0.0 2.0 0.00 0.00 0.00 78 1013.8
20260901071502 80 76 0.0 2.0 0.00 0.00 0.00 77 1013.8
20260901070004 81 76 0.0 2.0 0.00 0.00 0.00 76 1013.8
20260901064504 81 132 1.0 4.0 0.00 0.00 0.00 75 1013.7
20260901063008 81 109 0.0 6.0 0.00 0.00 0.00 74 1013.6
20260901061502 82 40 0.0 2.0 0.00 0.00 0.00 72 1013.5
20260901060005 82 93 1.0 6.0 0.00 0.00 0.00 71 1013.5
20260901054504 83 113 1.0 7.0 0.00 0.00 0.00 71 1013.3
20260901053003 83 92 1.0 5.0 0.00 0.00 0.00 70 1013.3
20260901051512 84 109 1.0 5.0 0.00 0.00 0.00 70 1013.1
20260901050009 84 100 0.0 4.0 0.00 0.00 0.00 68 1013.0
20260901044506 85 40 1.0 7.0 0.00 0.00 0.00 67 1013.0
20260901043005 85 60 2.0 8.0 0.00 0.00 0.00 66 1013.0
20260901041504 85 124 1.0 9.0 0.00 0.00 0.00 65 1013.0
20260901040006 86 77 1.0 6.0 0.00 0.00 0.00 63 1012.9
20260901034504 86 355 1.0 9.0 0.00 0.00 0.00 61 1012.9
20260901033005 87 145 3.0 10.0 0.00 0.00 0.00 59 1012.8
20260901031504 87 118 2.0 10.0 0.00 0.00 0.00 56 1012.7
20260901030006 88 90 2.0 8.0 0.00 0.00 0.00 53 1012.5
20260901024504 88 40 3.0 11.0 0.00 0.00 0.00 51 1012.3
20260901023004 88 93 1.0 4.0 0.00 0.00 0.00 48 1011.9
20260901021504 88 80 2.0 6.0 0.00 0.00 0.00 48 1011.8
20260901020007 88 62 1.0 4.0 0.00 0.00 0.00 48 1011.6
20260901014511 89 72 1.0 2.0 0.00 0.00 0.00 47 1011.3
20260901013004 90 72 1.0 2.0 0.00 0.00 0.00 46 1011.3
20260901011504 91 72 1.0 4.0 0.00 0.00 0.00 44 1011.1
20260901010006 91 90 0.0 3.0 0.00 0.00 0.00 43 1011.0
20260901004504 92 88 1.0 7.0 0.00 0.00 0.00 43 1010.9
20260901003005 93 78 1.0 4.0 0.00 0.00 0.00 42 1010.8
20260901001503 94 74 2.0 6.0 0.00 0.00 0.00 41 1010.8
20260901000006 95 69 3.0 7.0 0.00 0.00 0.00 41 1010.7
20260831234507 95 155 2.0 8.0 0.00 0.00 0.00 40 1010.8
20260831233004 96 106 1.0 8.0 0.00 0.00 0.00 41 1010.6
20260831231504 97 105 4.0 8.0 0.00 0.00 0.00 39 1010.7
20260831230005 97 114 2.0 5.0 0.00 0.00 0.00 38 1010.8